パンスターズ彗星

C/2020 K1 ( PanSTARRS )

English version
Home page
Updated on May 4, 2021

---------------------------------------------------------------------

・ プロフィール

発見日 2020年5月17日
発見光度 20.6等
発見者 Pan-STARRS2 1.8-m Ritchey-Chretien reflector at Haleakala

・ 写真集

・ 軌道要素

Epoch 2023 May 16.0 TT = JDT 2460080.5
T 2023 May  9.08920 TT                                  Rudenko
q   3.0733359            (2000.0)            P               Q
z  +0.0000046      Peri.  213.98439     +0.06618117     -0.03770175
 +/-0.0000047      Node    94.35585     -0.53600495     +0.84152034
e   0.9999857      Incl.   89.67067     -0.84161675     -0.53890825
From 280 observations 2020 Apr. 17-2021 May 2, mean residual 0".4.

・ 星図

・ 光度変化

        m1 = 5.0 + 5 logΔ + 10.0 log r

---------------------------------------------------------------------

軌道要素はM.P.E.C. 2021-J28に掲載されたものです。
星図はステラナビゲータ Ver.10 (アストロアーツ) で作成したものです。
光度グラフはComet for Windowsで作成したものです。

---------------------------------------------------------------------

Copyright(C) Seiichi Yoshida (comet@aerith.net). All rights reserved.